{"data":{"norad_id":48058,"intl_designator":"2021-025S","name":"ONEWEB-0149","alt_names":[],"object_type":"PAYLOAD","status":"ACTIVE","operator":null,"country":"UK","launch_date":"2021-03-25","launch_site_code":"VOSTO","launch_vehicle":null,"mission":null,"orbit_class":"UNKNOWN","rcs_meters":null,"size_class":null,"mass_kg":null,"dimensions":null,"purposes":["comms"],"wikipedia_slug":null,"has_3d_model":false,"image_url":null,"decayed_at":null,"tle_current":{"epoch":"2026-05-25T00:01:08.533344Z","epoch_age_seconds":71047,"freshness":"FRESH","line1":"1 48058U 21025S   26145.00079321 -.00000140  00000+0 -41697-3 0  9991","line2":"2 48058  87.8950 324.8410 0001984  95.5479 264.5877 13.13469391250441","mean_motion":13.13469391,"eccentricity":0.0001984,"inclination_deg":87.895,"raan_deg":324.841,"arg_perigee_deg":95.5479,"mean_anomaly_deg":264.5877,"bstar":-0.00041697,"rev_number":25044,"period_min":109.63331234569,"perigee_km":1208.2623050574,"apogee_km":1211.2731856604,"semimajor_km":7587.9047453589,"source":"CELESTRAK","updated_at":"2026-05-25T13:38:22.390991Z"}}}